Tracking 30510 objects as of 22-May-2025
HD Live streaming from Space Station
objects crossing your sky now

COSMOS 2574

Track COSMOS 2574 now!
10-day predictions


NORAD ID: 58658
Int'l Code: 2023-209A
Perigee: 339.1 km
Apogee: 345.7 km
Inclination: 96.7 °
Period: 91.2 minutes
Semi major axis: 6713 km
RCS: Unknown
Launch date: December 27, 2023
Source: Commonwealth of Independent States (former USSR) (CIS)
Launch site: PLESETSK MISSILE AND SPACE COMPLEX (PKMTR)
Your satellite tracking list
Your tracking list is empty




NASA's NSSDC Master Catalog

Two Line Element Set (TLE):
1 58658U 23209A   25142.52033289  .00036269  40430-6  21226-3 0  9993
2 58658  96.6624  37.4177 0004965 126.0961 234.0767 15.78300624 75114
Source of the keplerian elements: AFSPC